Regional Weather Roundup
Issued by NWS Upton, NY

Current Version | Previous Version | Text Only | Print | Product List | Glossary Off
Versions: 1 2 3 4 5 6 7 8 9 10 11 12 13 14 15 16 17 18 19 20 21 22 23 24 25 26 27

000
ASUS41 KOKX 271605
RWROKX

REGIONAL WEATHER ROUNDUP
NATIONAL WEATHER SERVICE NEW YORK NY
1200 PM EDT FRI MAY 27 2016

NOTE: "FAIR" INDICATES FEW OR NO CLOUDS BELOW 12,000 FEET WITH NO
SIGNIFICANT WEATHER AND/OR OBSTRUCTIONS TO VISIBILITY.

NYZ071-072-176-178-NJZ106-104-271700-
NEW YORK CITY METRO AREA


CITY           SKY/WX    TMP DP  RH WIND       PRES   REMARKS
CENTRAL PARK   SUNNY     84  63  49 VRB3      30.09R
LAGUARDIA APRT MOSUNNY   84  68  58 SE10      30.06R
KENNEDY INTL   MOSUNNY   73  63  70 S9        30.09S
NEWARK/LIBERTY PTSUNNY   86  65  49 SE7       30.05S
BRNX BOT. GARD   N/A     82  63  51 E3        30.09R
TETERBORO      SUNNY     84  62  47 S9        30.04S
$$

NYZ177-179-078>081-271700-
LONG ISLAND NEW YORK

CITY           SKY/WX    TMP DP  RH WIND       PRES   REMARKS
FARMINGDALE    MOSUNNY   77  65  66 S10       30.09R
ISLIP          PTSUNNY   74  63  68 S10       30.09R
SHIRLEY        SUNNY     74  63  68 S9        30.10S
RIVERHEAD        N/A     81  66  61 CALM      30.08S
WESTHAMPTON    CLOUDY    70  60  70 SW9       30.11S
EAST HAMPTON   PTSUNNY   66  59  79 S8        30.10S
MONTAUK POINT    N/A     65  59  81 S7        30.12S
$$

NYZ052-065-067-271700-
HUDSON VALLEY

CITY           SKY/WX    TMP DP  RH WIND       PRES   REMARKS
WHITE PLAINS   MOSUNNY   80  64  58 S5        30.07S
NEWBURGH       PTSUNNY   79  68  69 VRB5      30.07S
MONTGOMERY     CLOUDY    82  68  62 SW7       30.04F
POUGHKEEPSIE   CLOUDY    81  64  56 VRB5      30.04S
ALBANY         CLOUDY    80  62  54 S8        30.03S
$$

NJZ001-105-106-008-010-013-015-019>022-104-271700-
NEW JERSEY

CITY           SKY/WX    TMP DP  RH WIND       PRES   REMARKS
NEWARK/LIBERTY PTSUNNY   86  65  49 SE7       30.05S
TETERBORO      SUNNY     84  62  47 S9        30.04S
CALDWELL       SUNNY     85  64  49 VRB5      30.05F
MORRISTOWN     PTSUNNY   84  66  54 SW8       30.06S
SOMERVILLE     SUNNY     85  68  56 VRB5      30.04S
SUSSEX         SUNNY     84  67  56 VRB7      30.05F
ANDOVER          N/A     83  66  56 VRB7      30.06S
TRENTON        SUNNY     84  66  54 S10       30.06S
MILLVILLE      SUNNY     83  68  60 SW7       30.09R
ATLANTIC CITY  SUNNY     85  67  54 VRB6      30.08S
WRIGHTSTOWN    NOT AVBL
TOMS RIVER     PTSUNNY   90  64  43 SW8       30.07S HX  91
BELMAR         SUNNY     87  68  52 S8        30.08F HX  90
$$

PAZ047>061-062-071-271700-
EASTERN PENNSYLVANIA

CITY           SKY/WX    TMP DP  RH WIND       PRES   REMARKS
PHILADELPHIA   MOSUNNY   83  66  56 SW8       30.07S
ALLENTOWN      MOSUNNY   84  65  52 W7        30.05F
SCRANTON       SUNNY     83  63  50 W9        30.06F
$$

CTZ002-004>006-009-010-012-RIZ004-006-007-MAZ004-011-015-271700-
SOUTHERN NEW ENGLAND
 IN CT

CITY           SKY/WX    TMP DP  RH WIND       PRES   REMARKS
BRADLEY INTL   CLOUDY    85  63  47 S13G21    30.05S
HARTFORD       CLOUDY    83  65  54 S10       30.06S
DANBURY        MOSUNNY   81  65  58 S8        30.08F
WTRBRY/OXFORD  NOT AVBL
BRIDGEPORT     MOSUNNY   73  62  68 E7        30.08S
MERIDEN        CLOUDY    79  62  56 S8        30.08R
NEW HAVEN      MOSUNNY   76  63  64 SE8       30.08S
CHESTER        FAIR      79  64  61 S9        30.09F
GROTON         MOSUNNY   65  60  84 S8        30.10R
WILLIMANTIC    CLOUDY    83  62  49 S8        30.08S

 IN RI

CITY           SKY/WX    TMP DP  RH WIND       PRES   REMARKS
PROVIDENCE     PTSUNNY   73  59  61 S10       30.10F
BLOCK ISLAND   SUNNY     65  59  81 S15       30.12S
WESTERLY       SUNNY     67  57  70 SE7       30.11F

 IN MA

CITY           SKY/WX    TMP DP  RH WIND       PRES   REMARKS
BOSTON         PTSUNNY   65  57  75 E14       30.10F
WORCESTER      MOSUNNY   74  60  61 SE8       30.11F
WESTFIELD      CLOUDY    80  61  52 S9        30.05F
PROVINCETOWN   SUNNY     72  60  66 S8        30.11F
NANTUCKET      MOSUNNY   66  58  75 SW12      30.13S
$$

ANZ330-335-338-340-345-350-353-355-271700-
COASTAL MARINE OBSERVATIONS


STATION/POSITION TIME  SKY/WX   TEMP    WIND        PRES    VSBY  WAVE
                                AIR SEA DIR/SP/G                  HT/PER
                 (UTC)          (F)     (DEG/KT/KT) (MB)    (MI)  (FT/S)
NY HARB ENTRANCE 1450            62 61  180/  8/ 10 1018.2          2/ 8
20S FIRE ISLAND  1450            60 59  190/ 10/ 12 1018.7          2/ 4
GREAT SOUTH BAY  1530            64 69  210/ 10/ 10   N/A
23 SSW MONTAUK P 1550            59 57  210/ 12/ 14 1019.1          2/ 8
15 E BARNEGAT LI 1522               60                N/A           3/ 5
HUDSON CANYON    1450            60 57              1020.3          3/ 5
KINGS POINT      1500            72 62              1017.7
EXECUTION ROCKS  NOT AVBL
CENTRAL LI SOUND 1515            61      80/ 10/ 12   N/A           0
EASTERN LI SOUND 1500            60 54  120/  6/  8   N/A
ROBBINS REEF     1500            71     170/ 14/ 14 1017.2
$$


>>>>>>>>>>>>>>>>>>>>>>>>>>>> KEY <<<<<<<<<<<<<<<<<<<<<<<<<<<
>                                                          <
>     SKY/WX - SKY CONDITION/PRESENT WEATHER               <
>     TMP    - TEMPERATURE IN FAHRENHEIT                   <
>     DP     - DEWPOINT IN FAHRENHEIT                      <
>     RH     - RELATIVE HUMIDITY IN PERCENT                <
>     WIND   - DIRECTION AND SPEED IN MPH                  <
>     PRES   - MEAN SEA LEVEL PRESSURE IN INCHES OF HG     <
>     WCI    - WIND CHILL INDEX                            <
>     VSB    - VISIBILITY IN MILES                         <
>     HX     - HEAT INDEX                                  <
>     TC     - TEMPERATURE IN CELSIUS                      <
>     VRB    - VARIABLE WIND DIRECTION                     <
>                                                          <
>>>>>>>>>>>>>>>>>>>>>>>>>>>> KEY <<<<<<<<<<<<<<<<<<<<<<<<<<<






USA.gov is the U.S. government's official web portal to all federal, state and local government web resources and services.